User: anonymous   Login
Location: Red Shale Campground
(45.5700°N, 106.1600°W)
Time: 01:16:59
(UTC-06:00)
Language:

FENGYUN 3A - Orbit

View from above orbital plane
View from above orbital plane
View from above satellite
View from above satellite

Ground track
Ground track

The orbit data is extracted from the following two-line orbital elements,

1 32958U 08026A   15142.73543028  .00000156  00000-0  93689-4 0  9999
2 32958 098.5061 194.2455 0009297 319.5189 040.5293 14.19557391362011
Epoch (UTC): 22 May 2015 17:39:01
Eccentricity: 0.0009297
inclination: 98.5061°
perigee height: 820 km
apogee height: 833 km
right ascension of ascending node: 194.2455°
argument of perigee: 319.5189°
revolutions per day: 14.19557391
mean anomaly at epoch: 40.5293°
orbit number at epoch: 36201

The dashed part of the orbit path shows where the satellite is in the earth's shadow,  

DLR